DOC65 ENBG-ENBG

Flight info

Callsign DOC65
Flight time 0h 7m
Altitude 2500
Route VFR
Aircraft EC45/L-VGD/C

Departure

Time 2026-04-29 11:02
Airport Grønneviksøren (Haukeland Sykehus) Heliport (ENBG)

Arrival

Time 2026-04-29 11:09
Airport Grønneviksøren (Haukeland Sykehus) Heliport (ENBG)
Time Latitude Longitude Altitude Speed Heading
2026-04-29 10:50 60.37997 5.34688 15 ft 0 kts 261°
2026-04-29 10:54 60.37998 5.34688 15 ft 0 kts 262°
2026-04-29 10:55 60.37990 5.34615 20 ft 1 kts 251°
2026-04-29 10:56 60.37986 5.34601 17 ft 1 kts 251°
2026-04-29 10:56 60.37986 5.34600 17 ft 1 kts 251°
2026-04-29 10:56 60.37985 5.34604 22 ft 0 kts 250°
2026-04-29 10:56 60.37985 5.34603 25 ft 0 kts 250°
2026-04-29 10:57 60.37985 5.34602 25 ft 0 kts 250°
2026-04-29 10:57 60.37985 5.34603 26 ft 0 kts 250°
2026-04-29 10:57 60.37985 5.34602 24 ft 0 kts 271°
2026-04-29 10:58 60.37986 5.34601 25 ft 0 kts 306°
2026-04-29 10:58 60.37985 5.34601 24 ft 0 kts 306°
2026-04-29 10:58 60.37986 5.34604 23 ft 0 kts 305°
2026-04-29 10:58 60.37985 5.34603 26 ft 0 kts 305°
2026-04-29 10:59 60.37984 5.34603 18 ft 0 kts 305°
2026-04-29 11:00 60.37986 5.34604 20 ft 3 kts 307°
2026-04-29 11:00 60.38072 5.34464 115 ft 32 kts 312°
2026-04-29 11:00 60.38383 5.34214 256 ft 66 kts 345°
2026-04-29 11:01 60.38904 5.33953 312 ft 90 kts 320°
2026-04-29 11:01 60.39343 5.32886 257 ft 109 kts 305°
2026-04-29 11:01 60.39914 5.31915 353 ft 108 kts 328°
2026-04-29 11:01 60.40610 5.31342 456 ft 108 kts 337°
2026-04-29 11:02 60.41317 5.30827 552 ft 107 kts 339°
2026-04-29 11:02 60.41996 5.30322 687 ft 100 kts 337°
2026-04-29 11:02 60.42627 5.29798 869 ft 97 kts 335°
2026-04-29 11:02 60.43273 5.29673 1045 ft 100 kts 21°
2026-04-29 11:03 60.43804 5.30481 1324 ft 96 kts 43°
2026-04-29 11:03 60.44241 5.31541 1490 ft 101 kts 50°
2026-04-29 11:03 60.44634 5.32725 1624 ft 104 kts 56°
2026-04-29 11:03 60.44985 5.34037 1763 ft 107 kts 61°
2026-04-29 11:04 60.45238 5.35476 1844 ft 109 kts 74°
2026-04-29 11:04 60.45356 5.36991 1897 ft 109 kts 83°
2026-04-29 11:04 60.45350 5.38522 1969 ft 109 kts 93°
2026-04-29 11:04 60.45219 5.40028 1990 ft 109 kts 102°
2026-04-29 11:05 60.44985 5.41492 2084 ft 110 kts 108°
2026-04-29 11:05 60.44759 5.42965 2093 ft 110 kts 105°
2026-04-29 11:05 60.44558 5.44499 2128 ft 115 kts 102°
2026-04-29 11:05 60.44380 5.46094 2035 ft 118 kts 102°
2026-04-29 11:06 60.44186 5.47724 2005 ft 120 kts 103°
2026-04-29 11:06 60.43985 5.49380 1928 ft 122 kts 102°
2026-04-29 11:06 60.43841 5.51077 1820 ft 123 kts 97°
2026-04-29 11:06 60.43761 5.52809 1707 ft 124 kts 92°
2026-04-29 11:07 60.43748 5.54559 1631 ft 125 kts 88°
2026-04-29 11:07 60.43801 5.56314 1516 ft 124 kts 84°
2026-04-29 11:07 60.44157 5.57658 1570 ft 103 kts 23°
2026-04-29 11:07 60.44787 5.57564 1711 ft 86 kts 338°
2026-04-29 11:08 60.45311 5.57102 1867 ft 79 kts 331°
2026-04-29 11:08 60.45778 5.56575 1972 ft 75 kts 326°
2026-04-29 11:08 60.46199 5.56019 1953 ft 70 kts 323°
2026-04-29 11:08 60.46580 5.55448 1817 ft 66 kts 320°
2026-04-29 11:09 60.46636 5.54724 1605 ft 66 kts 216°
2026-04-29 11:09 60.46270 5.55042 1484 ft 64 kts 99°
2026-04-29 11:09 60.46352 5.55823 1442 ft 52 kts 43°
2026-04-29 11:09 60.46625 5.55910 1267 ft 38 kts 306°
2026-04-29 11:10 60.46565 5.55545 1132 ft 32 kts 192°
2026-04-29 11:10 60.46429 5.55557 1033 ft 12 kts 193°
2026-04-29 11:10 60.46380 5.55531 1040 ft 5 kts 193°
2026-04-29 11:10 60.46350 5.55516 1042 ft 6 kts 133°
2026-04-29 11:11 60.46328 5.55557 1024 ft 2 kts 133°
2026-04-29 11:11 60.46328 5.55561 1016 ft 0 kts 132°
2026-04-29 11:17 60.46302 5.55591 1114 ft 9 kts 134°
2026-04-29 11:17 60.46219 5.55692 1292 ft 25 kts 133°
2026-04-29 11:17 60.45973 5.56076 1466 ft 59 kts 146°
2026-04-29 11:18 60.45555 5.56629 1629 ft 84 kts 150°
2026-04-29 11:18 60.44949 5.57109 1725 ft 104 kts 169°
2026-04-29 11:18 60.44186 5.57165 1737 ft 115 kts 189°
2026-04-29 11:18 60.43398 5.56716 1751 ft 120 kts 206°
2026-04-29 11:19 60.42660 5.55878 1789 ft 122 kts 213°
2026-04-29 11:19 60.41937 5.55007 1879 ft 120 kts 216°
2026-04-29 11:19 60.41271 5.54024 1977 ft 118 kts 223°
2026-04-29 11:19 60.40684 5.52943 2210 ft 109 kts 229°
2026-04-29 11:20 60.40200 5.51811 2417 ft 106 kts 235°
2026-04-29 11:20 60.39794 5.50564 2624 ft 107 kts 241°
2026-04-29 11:20 60.39447 5.49178 2702 ft 115 kts 246°
2026-04-29 11:20 60.39137 5.47622 2759 ft 123 kts 250°
2026-04-29 11:21 60.38873 5.45950 2768 ft 127 kts 254°
2026-04-29 11:21 60.38659 5.44208 2706 ft 128 kts 258°
2026-04-29 11:21 60.38496 5.42423 2697 ft 130 kts 261°
2026-04-29 11:21 60.38383 5.40612 2458 ft 130 kts 265°
2026-04-29 11:22 60.38620 5.38868 1968 ft 138 kts 301°
2026-04-29 11:22 60.38794 5.36929 1206 ft 152 kts 245°
2026-04-29 11:22 60.37936 5.35818 573 ft 146 kts 210°
2026-04-29 11:22 60.37499 5.34418 364 ft 103 kts 291°
2026-04-29 11:23 60.37962 5.33630 260 ft 84 kts 342°
2026-04-29 11:23 60.38496 5.33401 244 ft 72 kts 347°
2026-04-29 11:23 60.38941 5.33172 219 ft 57 kts 322°
2026-04-29 11:23 60.39168 5.32652 204 ft 53 kts 327°
2026-04-29 11:24 60.39355 5.32594 243 ft 25 kts 114°
2026-04-29 11:24 60.39361 5.32747 16 ft 0 kts 271°
2026-04-29 11:24 60.39333 5.32734 23 ft 8 kts 260°
2026-04-29 11:24 60.39314 5.32729 21 ft 0 kts 258°
2026-04-29 11:41 60.39313 5.32729 52 ft 2 kts 261°
2026-04-29 11:41 60.39307 5.32673 207 ft 19 kts 261°
2026-04-29 11:42 60.39183 5.32154 407 ft 74 kts 217°
2026-04-29 11:42 60.38573 5.32511 433 ft 112 kts 134°
2026-04-29 11:42 60.38057 5.33753 575 ft 114 kts 127°
2026-04-29 11:42 60.37588 5.35010 780 ft 108 kts 125°
2026-04-29 11:43 60.37224 5.36176 792 ft 86 kts 123°
2026-04-29 11:43 60.36886 5.36638 764 ft 46 kts 227°
2026-04-29 11:43 60.36881 5.36216 525 ft 40 kts 333°
2026-04-29 11:43 60.37115 5.36005 468 ft 32 kts 334°
2026-04-29 11:44 60.37269 5.35876 293 ft 17 kts 337°
2026-04-29 11:44 60.37312 5.35838 262 ft 0 kts 338°